Easton, MD

4:49 PM EDT on September 23, 2019 (GMT -0400)
Easton / Newnam

Weather History for KESN - July, 2019

Change the Weather History Date:

Sunday, July 21, 2019

  Actual Average Record
Temperature  
Mean Temperature 89 °F -  
Max Temperature 98 °F 88 °F 98 °F (2019)
Min Temperature 80 °F 65 °F 52 °F (1965)
Cooling Degree Days 24    
Growing Degree Days 39 (Base 50)    
Moisture  
Dew Point 78 °F    
Average Humidity 73    
Maximum Humidity 89    
Minimum Humidity 44    
Precipitation  
Precipitation 0.00 in - - ()
Sea Level Pressure  
Sea Level Pressure 29.90 in    
Wind  
Wind Speed 3 mph (WSW)    
Max Wind Speed 12 mph    
Max Gust Speed 16 mph    
Visibility 10 miles    
Events      
Averages and records for this station are not official NWS values.
T = Trace of Precipitation, MM = Missing Value Source: NWS Daily Summary

Daily Weather History Graph

Daily Weather History Graph

Search for Another Location

Airport or City:

Astronomy

Jul. 21, 2019 Rise Set
Actual Time 5:55 AM EDT 8:24 PM EDT
Civil Twilight 5:25 AM EDT 8:55 PM EDT
Nautical Twilight 4:47 AM EDT 9:33 PM EDT
Astronomical Twilight 4:05 AM EDT 10:15 PM EDT
Moon 11:21 PM EDT (7/21) 10:12 AM EDT (7/21)
Length of Visible Light 15h 30m
Length of Day
14h 29m
Waning Gibbous, 80% of the Moon is Illuminated
Jul 21
Waning Gibbous
Jul 24
Last Quarter
Jul 31
New
Aug 7
First Quarter
Aug 15
Full

Hourly Weather History & Observations

Time (EDT) Temp. Heat Index Dew Point Humidity Pressure Visibility Wind Dir Wind Speed Gust Speed Precip Events Conditions
12:00 AM 86.0 °F 101.9 °F 80.8 °F 84% 29.89 in 10.0 mi South 3.5 mph - N/A   Clear
12:20 AM 85.6 °F 101.2 °F 80.6 °F 85% 29.90 in 10.0 mi South 3.5 mph - N/A   Clear
12:40 AM 85.1 °F 100.4 °F 81.0 °F 87% 29.89 in 10.0 mi SSW 3.5 mph - N/A   Clear
1:00 AM 85.1 °F 100.9 °F 81.3 °F 88% 29.89 in 10.0 mi Calm Calm - N/A   Clear
1:20 AM 85.1 °F 101.4 °F 81.5 °F 89% 29.90 in 10.0 mi Calm Calm - N/A   Clear
1:40 AM 85.6 °F 101.8 °F 81.0 °F 86% 29.90 in 10.0 mi Calm Calm - N/A   Clear
2:00 AM 85.8 °F 99.8 °F 79.3 °F 81% 29.90 in 10.0 mi Calm Calm - N/A   Clear
2:20 AM 85.3 °F 98.6 °F 79.2 °F 82% 29.90 in 10.0 mi Calm Calm - N/A   Clear
2:40 AM 84.7 °F 96.9 °F 78.8 °F 82% 29.90 in 10.0 mi Calm Calm - N/A   Clear
3:00 AM 84.2 °F 94.5 °F 77.4 °F 80% 29.89 in 10.0 mi WNW 3.5 mph - N/A   Clear
3:20 AM 83.1 °F 92.3 °F 77.0 °F 82% 29.89 in 10.0 mi Calm Calm - N/A   Clear
3:40 AM 83.5 °F 92.6 °F 76.6 °F 80% 29.89 in 10.0 mi Calm Calm - N/A   Clear
4:00 AM 83.3 °F 92.1 °F 76.6 °F 80% 29.89 in 10.0 mi Calm Calm - N/A   Clear
4:20 AM 83.5 °F 92.9 °F 77.0 °F 81% 29.89 in 10.0 mi Calm Calm - N/A   Clear
4:40 AM 81.5 °F 88.7 °F 76.6 °F 85% 29.88 in 10.0 mi Calm Calm - N/A   Clear
5:00 AM 82.0 °F 89.9 °F 76.8 °F 84% 29.87 in 10.0 mi Calm Calm - N/A   Clear
5:20 AM 81.0 °F 87.7 °F 76.8 °F 87% 29.87 in 10.0 mi Calm Calm - N/A   Clear
5:40 AM 81.1 °F 88.2 °F 77.0 °F 87% 29.88 in 10.0 mi Calm Calm - N/A   Clear
5:41 AM 81.0 °F 87.9 °F 77.0 °F 88% 29.88 in 10.0 mi Calm Calm - N/A   Clear
5:57 AM 80.6 °F 87.1 °F 77.0 °F 89% 29.88 in 10.0 mi Calm Calm - N/A   Clear
6:54 AM 82.4 °F 92.4 °F 78.8 °F 89% 29.90 in 10.0 mi Calm Calm - N/A   Scattered Clouds
7:56 AM 86.0 °F 99.3 °F 78.8 °F 79% 29.93 in 10.0 mi Calm Calm - N/A   Scattered Clouds
8:50 AM 89.6 °F 102.2 °F 77.0 °F 66% 29.93 in 10.0 mi West 9.2 mph - N/A   Clear
9:58 AM 93.2 °F 107.2 °F 77.0 °F 59% 29.93 in 10.0 mi NW 10.4 mph 16.1 mph N/A   Clear
10:48 AM 93.2 °F 107.2 °F 77.0 °F 59% 29.93 in 10.0 mi WNW 11.5 mph - N/A   Clear
11:50 AM 95.0 °F 109.7 °F 77.0 °F 56% 29.93 in 10.0 mi WNW 6.9 mph - N/A   Clear
12:50 PM 96.8 °F 109.6 °F 75.2 °F 50% 29.92 in 10.0 mi West 4.6 mph - N/A   Clear
1:53 PM 98.6 °F 109.2 °F 73.4 °F 44% 29.91 in 10.0 mi WSW 5.8 mph - N/A   Scattered Clouds
2:53 PM 98.6 °F 111.7 °F 75.2 °F 47% 29.90 in 10.0 mi WSW 6.9 mph - N/A   Partly Cloudy
3:53 PM 98.6 °F 109.2 °F 73.4 °F 44% 29.89 in 10.0 mi SW 9.2 mph - N/A   Partly Cloudy
4:50 PM 98.6 °F 109.2 °F 73.4 °F 44% 29.88 in 10.0 mi SSW 9.2 mph - N/A   Partly Cloudy
5:50 PM 96.8 °F 109.6 °F 75.2 °F 50% 29.87 in 10.0 mi SW 4.6 mph - N/A   Clear
6:45 PM 96.8 °F 109.6 °F 75.2 °F 50% 29.87 in 10.0 mi SSW 5.8 mph - N/A   Clear
7:50 PM 91.4 °F 102.5 °F 75.2 °F 59% 29.88 in 10.0 mi SSW 4.6 mph - N/A   Scattered Clouds
8:48 PM 91.4 °F 107.2 °F 78.8 °F 66% 29.89 in 10.0 mi South 4.6 mph - N/A   Clear
9:50 PM 87.8 °F 104.9 °F 80.6 °F 79% 29.90 in 10.0 mi West 4.6 mph - N/A   Clear
10:20 PM 87.1 °F 103.2 °F 80.2 °F 80% 29.90 in 10.0 mi WSW 3.5 mph - N/A   Clear
10:40 PM 87.8 °F 105.6 °F 80.8 °F 80% 29.91 in 10.0 mi Calm Calm - N/A   Clear
11:00 PM 85.5 °F 100.1 °F 80.2 °F 84% 29.91 in 10.0 mi NNW 4.6 mph - N/A   Clear
11:20 PM 86.0 °F 94.6 °F 74.8 °F 69% 29.92 in 10.0 mi NNW 4.6 mph - N/A   Clear
11:40 PM 85.6 °F 93.0 °F 73.4 °F 67% 29.91 in 10.0 mi NW 3.5 mph - N/A   Clear